QPF
0.00 0.00 0.00 0.00 0.00 0.00 0.01 0.01 0.02 0.03 0.02 0.02 0.02 0.03 0.04 0.05 0.05 0.05 0.05 0.06 0.07 0.08 0.10 0.11 0.12 0.12 0.13 0.15 0.16 0.16 0.16 0.17 0.15 0.14 0.12 0.08 0.05 0.04 0.04 0.03 0.02 0.01 0.01
0.00 0.01 0.02 0.01 0.00 0.00 0.01 0.02 0.03 0.04 0.05 0.05 0.05 0.06 0.10 0.11 0.11 0.11 0.11 0.12 0.12 0.11 0.11 0.10 0.09 0.10 0.12 0.14 0.16 0.17 0.20 0.20 0.17 0.15 0.14 0.10 0.06 0.03 0.02 0.02 0.01 0.01 0.00
0.00 0.01 0.04 0.03 0.00 0.01 0.01 0.02 0.04 0.06 0.07 0.07 0.09 0.10 0.14 0.15 0.13 0.11 0.11 0.11 0.11 0.11 0.11 0.09 0.09 0.09 0.09 0.11 0.14 0.15 0.17 0.18 0.16 0.12 0.11 0.10 0.07 0.03 0.02 0.01 0.01 0.01 0.00
0.00 0.00 0.03 0.05 0.01 0.01 0.02 0.03 0.05 0.06 0.09 0.13 0.14 0.14 0.15 0.16 0.13 0.10 0.09 0.08 0.08 0.07 0.07 0.06 0.06 0.06 0.07 0.08 0.08 0.08 0.09 0.10 0.09 0.07 0.05 0.05 0.04 0.03 0.02 0.01 0.01 0.01 0.00
0.00 0.00 0.00 0.01 0.01 0.02 0.03 0.04 0.07 0.08 0.11 0.15 0.17 0.17 0.17 0.18 0.15 0.11 0.07 0.05 0.04 0.04 0.03 0.03 0.02 0.02 0.03 0.04 0.04 0.03 0.04 0.04 0.03 0.03 0.02 0.03 0.03 0.02 0.02 0.01 0.01 0.00 0.00
0.00 0.00 0.01 0.01 0.02 0.02 0.03 0.05 0.07 0.08 0.11 0.14 0.18 0.19 0.17 0.15 0.13 0.09 0.07 0.06 0.05 0.03 0.02 0.01 0.01 0.01 0.01 0.01 0.02 0.02 0.02 0.02 0.02 0.02 0.02 0.02 0.02 0.03 0.02 0.02 0.01 0.01 0.01
0.01 0.01 0.01 0.01 0.01 0.02 0.02 0.03 0.04 0.05 0.08 0.10 0.14 0.15 0.16 0.15 0.12 0.11 0.10 0.07 0.04 0.02 0.01 0.00 0.00 0.00 0.00 0.01 0.01 0.01 0.01 0.01 0.02 0.02 0.02 0.02 0.02 0.02 0.02 0.02 0.02 0.01 0.01
0.01 0.01 0.01 0.01 0.02 0.02 0.03 0.03 0.04 0.05 0.07 0.09 0.12 0.13 0.14 0.12 0.12 0.11 0.07 0.04 0.02 0.01 0.00 0.00 0.00 0.00 0.00 0.00 0.01 0.01 0.01 0.01 0.01 0.01 0.01 0.01 0.01 0.01 0.01 0.01 0.01 0.01 0.01
0.02 0.02 0.02 0.03 0.03 0.03 0.04 0.04 0.04 0.05 0.07 0.08 0.10 0.10 0.10 0.08 0.06 0.04 0.02 0.01 0.01 0.00 0.00 0.00 0.00 0.00 0.00 0.00 0.00 0.00 0.00 0.00 0.01 0.01 0.01 0.01 0.00 0.00 0.00 0.00 0.01 0.01 0.00
0.02 0.02 0.03 0.03 0.03 0.03 0.03 0.03 0.03 0.04 0.05 0.05 0.05 0.05 0.04 0.04 0.03 0.02 0.01 0.01 0.01 0.00 0.00 0.00 0.00 0.00 0.00 0.00 0.00 0.00 0.00 0.00 0.01 0.00 0.00 0.00 0.00 0.00 0.00 0.00 0.00 0.00 0.00
0.02 0.02 0.02 0.02 0.02 0.02 0.02 0.02 0.02 0.02 0.02 0.02 0.02 0.02 0.02 0.01 0.01 0.01 0.01 0.01 0.00 0.00 0.00 0.00 0.00 0.00 0.00 0.00 0.00 0.00 0.00 0.00 0.00 0.00 0.00 0.00 0.00 0.00 0.00 0.00 0.00 0.00 0.00
0.02 0.02 0.02 0.01 0.01 0.01 0.01 0.01 0.01 0.01 0.01 0.01 0.01 0.01 0.01 0.01 0.01 0.01 0.00 0.00 0.00 0.00 0.00 0.00 0.00 0.00 0.00 0.00 0.00 0.00 0.00 0.00 0.00 0.00 0.00 0.00 0.00 0.00 0.00 0.01 0.01 0.01 0.01
0.02 0.02 0.01 0.01 0.01 0.01 0.01 0.01 0.01 0.01 0.01 0.01 0.01 0.01 0.01 0.01 0.01 0.00 0.00 0.00 0.00 0.00 0.00 0.00 0.00 0.00 0.00 0.00 0.00 0.00 0.00 0.00 0.00 0.00 0.00 0.00 0.01 0.01 0.01 0.01 0.01 0.01 0.02
0.02 0.01 0.01 0.01 0.01 0.01 0.01 0.01 0.01 0.00 0.00 0.00 0.00 0.00 0.01 0.01 0.01 0.01 0.00 0.00 0.00 0.00 0.00 0.00 0.00 0.00 0.00 0.00 0.00 0.00 0.00 0.00 0.00 0.01 0.01 0.01 0.01 0.01 0.02 0.01 0.02 0.02 0.03
0.02 0.01 0.01 0.01 0.01 0.01 0.01 0.01 0.00 0.00 0.00 0.00 0.00 0.00 0.00 0.00 0.00 0.00 0.00 0.00 0.00 0.00 0.00 0.00 0.00 0.00 0.00 0.00 0.00 0.00 0.00 0.00 0.01 0.01 0.01 0.01 0.01 0.01 0.00 0.00 0.01 0.02 0.03
0.03 0.02 0.02 0.02 0.02 0.01 0.01 0.01 0.01 0.01 0.01 0.01 0.00 0.00 0.00 0.00 0.00 0.00 0.01 0.01 0.01 0.01 0.01 0.00 0.00 0.00 0.00 0.00 0.00 0.00 0.00 0.00 0.01 0.01 0.02 0.02 0.01 0.01 0.01 0.01 0.01 0.01 0.02
0.06 0.06 0.06 0.05 0.05 0.04 0.04 0.03 0.02 0.01 0.01 0.00 0.00 0.00 0.00 0.00 0.00 0.01 0.01 0.01 0.01 0.01 0.01 0.01 0.01 0.01 0.00 0.00 0.00 0.00 0.00 0.00 0.01 0.02 0.02 0.02 0.02 0.02 0.03 0.02 0.01 0.01 0.03
0.14 0.14 0.12 0.09 0.06 0.04 0.02 0.01 0.01 0.00 0.00 0.00 0.00 0.00 0.00 0.01 0.01 0.01 0.01 0.01 0.01 0.01 0.01 0.01 0.01 0.02 0.01 0.00 0.00 0.00 0.00 0.01 0.01 0.02 0.02 0.03 0.04 0.03 0.01 0.00 0.01 0.03 0.06
0.09 0.07 0.05 0.04 0.03 0.02 0.01 0.01 0.01 0.00 0.00 0.00 0.00 0.01 0.01 0.01 0.01 0.01 0.01 0.01 0.01 0.01 0.01 0.01 0.01 0.02 0.02 0.00 0.00 0.00 0.00 0.01 0.01 0.01 0.02 0.02 0.04 0.01 0.00 0.00 0.02 0.03 0.05
0.04 0.02 0.02 0.01 0.01 0.01 0.01 0.01 0.01 0.01 0.01 0.01 0.01 0.01 0.01 0.01 0.01 0.01 0.01 0.02 0.02 0.02 0.02 0.01 0.01 0.02 0.02 0.00 0.00 0.00 0.00 0.01 0.01 0.02 0.03 0.03 0.01 0.00 0.00 0.00 0.02 0.03 0.03
0.01 0.01 0.01 0.01 0.01 0.01 0.02 0.02 0.02 0.02 0.02 0.01 0.01 0.01 0.01 0.00 0.01 0.01 0.02 0.03 0.03 0.03 0.03 0.02 0.02 0.02 0.01 0.00 0.00 0.00 0.00 0.01 0.01 0.02 0.03 0.05 0.00 0.00 0.00 0.00 0.02 0.03 0.01
0.01 0.01 0.01 0.02 0.02 0.02 0.03 0.03 0.03 0.02 0.02 0.02 0.02 0.01 0.01 0.00 0.01 0.02 0.04 0.05 0.05 0.04 0.03 0.03 0.02 0.02 0.02 0.01 0.00 0.00 0.00 0.00 0.01 0.03 0.04 0.03 0.00 0.00 0.00 0.00 0.01 0.00 0.01
0.01 0.01 0.02 0.02 0.02 0.02 0.03 0.04 0.03 0.02 0.02 0.03 0.02 0.01 0.01 0.01 0.01 0.03 0.05 0.05 0.05 0.04 0.03 0.03 0.02 0.02 0.02 0.02 0.00 0.00 0.00 0.00 0.01 0.02 0.01 0.00 0.00 0.01 0.03 0.03 0.01 0.03 0.07
0.02 0.02 0.02 0.02 0.01 0.01 0.01 0.01 0.01 0.01 0.01 0.02 0.01 0.01 0.02 0.03 0.04 0.05 0.04 0.05 0.04 0.02 0.02 0.02 0.02 0.02 0.02 0.02 0.01 0.00 0.01 0.01 0.01 0.01 0.02 0.02 0.02 0.02 0.04 0.05 0.06 0.08 0.08
0.01 0.01 0.01 0.01 0.00 0.00 0.00 0.00 0.00 0.01 0.02 0.03 0.02 0.02 0.02 0.03 0.05 0.06 0.03 0.02 0.02 0.00 0.00 0.01 0.01 0.01 0.01 0.01 0.00 0.00 0.00 0.00 0.00 0.00 0.02 0.06 0.06 0.05 0.05 0.06 0.07 0.08 0.07
0.01 0.01 0.01 0.00 0.00 0.00 0.00 0.00 0.00 0.00 0.02 0.04 0.03 0.01 0.01 0.02 0.03 0.05 0.05 0.01 0.00 0.00 0.00 0.00 0.00 0.00 0.00 0.00 0.00 0.00 0.00 0.00 0.01 0.01 0.04 0.04 0.04 0.03 0.03 0.04 0.05 0.06 0.06
MSLP
1004.42 1004.76 1005.07 1005.35 1005.62 1005.92 1006.30 1006.81 1007.46 1008.24 1009.12 1010.03 1010.91 1011.70 1012.39 1012.95 1013.40 1013.80 1014.16 1014.53 1014.92 1015.33 1015.75 1016.15 1016.52 1016.86 1017.16 1017.46 1017.77 1018.12 1018.52 1018.98 1019.45 1019.90 1020.28 1020.53 1020.64 1020.58 1020.38 1020.09 1019.76 1019.46 1019.23
1005.82 1006.16 1006.39 1006.52 1006.59 1006.67 1006.83 1007.15 1007.66 1008.36 1009.20 1010.11 1011.04 1011.89 1012.64 1013.27 1013.78 1014.21 1014.60 1014.99 1015.40 1015.82 1016.25 1016.66 1017.02 1017.33 1017.60 1017.84 1018.10 1018.40 1018.76 1019.20 1019.67 1020.14 1020.55 1020.85 1020.99 1020.95 1020.74 1020.40 1020.01 1019.61 1019.28
1007.63 1007.98 1008.13 1008.11 1007.98 1007.83 1007.76 1007.87 1008.20 1008.76 1009.52 1010.40 1011.32 1012.20 1012.99 1013.65 1014.20 1014.67 1015.09 1015.50 1015.92 1016.36 1016.79 1017.20 1017.54 1017.83 1018.06 1018.25 1018.45 1018.70 1019.02 1019.42 1019.89 1020.37 1020.81 1021.14 1021.31 1021.29 1021.08 1020.72 1020.26 1019.79 1019.37
1009.65 1010.01 1010.10 1009.95 1009.65 1009.29 1009.00 1008.90 1009.04 1009.45 1010.10 1010.90 1011.79 1012.66 1013.45 1014.13 1014.70 1015.19 1015.63 1016.05 1016.48 1016.92 1017.35 1017.75 1018.08 1018.34 1018.54 1018.69 1018.84 1019.04 1019.32 1019.70 1020.15 1020.63 1021.08 1021.43 1021.62 1021.61 1021.40 1021.02 1020.53 1019.99 1019.49
1011.63 1012.00 1012.06 1011.83 1011.39 1010.88 1010.42 1010.14 1010.12 1010.39 1010.91 1011.63 1012.44 1013.28 1014.05 1014.73 1015.30 1015.79 1016.23 1016.65 1017.08 1017.52 1017.94 1018.32 1018.63 1018.87 1019.03 1019.16 1019.27 1019.44 1019.68 1020.02 1020.44 1020.91 1021.35 1021.70 1021.90 1021.90 1021.69 1021.30 1020.78 1020.19 1019.63
1013.34 1013.74 1013.78 1013.51 1013.01 1012.41 1011.85 1011.45 1011.32 1011.48 1011.90 1012.53 1013.27 1014.05 1014.78 1015.43 1015.98 1016.46 1016.89 1017.30 1017.71 1018.12 1018.52 1018.88 1019.17 1019.39 1019.53 1019.63 1019.72 1019.85 1020.06 1020.36 1020.75 1021.18 1021.59 1021.92 1022.11 1022.11 1021.89 1021.50 1020.96 1020.36 1019.76
1014.63 1015.04 1015.11 1014.84 1014.35 1013.74 1013.15 1012.72 1012.54 1012.63 1012.99 1013.54 1014.22 1014.93 1015.61 1016.21 1016.73 1017.18 1017.57 1017.96 1018.34 1018.72 1019.09 1019.42 1019.69 1019.88 1020.01 1020.09 1020.16 1020.26 1020.43 1020.69 1021.02 1021.39 1021.76 1022.05 1022.20 1022.18 1021.97 1021.58 1021.05 1020.46 1019.85
1015.44 1015.88 1015.97 1015.76 1015.33 1014.78 1014.25 1013.86 1013.69 1013.78 1014.10 1014.60 1015.22 1015.87 1016.49 1017.04 1017.51 1017.90 1018.26 1018.60 1018.94 1019.28 1019.61 1019.91 1020.15 1020.33 1020.44 1020.50 1020.55 1020.63 1020.75 1020.95 1021.22 1021.52 1021.81 1022.04 1022.15 1022.11 1021.90 1021.53 1021.04 1020.48 1019.91
1015.84 1016.29 1016.44 1016.31 1015.98 1015.55 1015.14 1014.84 1014.75 1014.87 1015.19 1015.67 1016.24 1016.82 1017.38 1017.86 1018.27 1018.61 1018.92 1019.20 1019.50 1019.79 1020.08 1020.35 1020.57 1020.72 1020.82 1020.87 1020.90 1020.94 1021.01 1021.15 1021.33 1021.55 1021.76 1021.91 1021.97 1021.91 1021.70 1021.37 1020.93 1020.44 1019.94
1016.00 1016.46 1016.65 1016.61 1016.41 1016.13 1015.87 1015.71 1015.71 1015.89 1016.24 1016.70 1017.23 1017.76 1018.24 1018.66 1019.00 1019.28 1019.53 1019.77 1020.01 1020.27 1020.52 1020.75 1020.95 1021.09 1021.17 1021.20 1021.21 1021.21 1021.23 1021.29 1021.39 1021.51 1021.62 1021.70 1021.71 1021.63 1021.44 1021.15 1020.78 1020.38 1019.96
1016.13 1016.57 1016.80 1016.85 1016.77 1016.64 1016.54 1016.52 1016.64 1016.89 1017.26 1017.71 1018.19 1018.66 1019.07 1019.41 1019.68 1019.91 1020.10 1020.29 1020.49 1020.71 1020.94 1021.15 1021.32 1021.45 1021.52 1021.54 1021.52 1021.48 1021.45 1021.43 1021.44 1021.46 1021.48 1021.49 1021.44 1021.34 1021.17 1020.93 1020.65 1020.33 1020.01
1016.42 1016.83 1017.07 1017.18 1017.21 1017.21 1017.24 1017.35 1017.56 1017.87 1018.26 1018.69 1019.12 1019.52 1019.86 1020.12 1020.33 1020.49 1020.64 1020.80 1020.97 1021.16 1021.36 1021.56 1021.73 1021.85 1021.91 1021.92 1021.87 1021.80 1021.70 1021.61 1021.53 1021.47 1021.40 1021.33 1021.24 1021.12 1020.96 1020.77 1020.56 1020.32 1020.08
1016.96 1017.31 1017.55 1017.70 1017.80 1017.89 1018.03 1018.23 1018.51 1018.85 1019.24 1019.64 1020.01 1020.34 1020.60 1020.79 1020.94 1021.05 1021.16 1021.29 1021.44 1021.62 1021.81 1022.00 1022.16 1022.28 1022.34 1022.33 1022.27 1022.16 1022.02 1021.86 1021.70 1021.56 1021.41 1021.28 1021.14 1021.00 1020.85 1020.69 1020.52 1020.34 1020.15
1017.74 1018.04 1018.24 1018.40 1018.53 1018.69 1018.89 1019.15 1019.46 1019.81 1020.18 1020.53 1020.84 1021.09 1021.28 1021.41 1021.50 1021.58 1021.66 1021.77 1021.91 1022.08 1022.27 1022.45 1022.61 1022.72 1022.78 1022.76 1022.68 1022.54 1022.36 1022.16 1021.94 1021.72 1021.51 1021.31 1021.13 1020.96 1020.80 1020.65 1020.50 1020.34 1020.17
1018.68 1018.91 1019.07 1019.21 1019.36 1019.54 1019.77 1020.05 1020.37 1020.71 1021.03 1021.33 1021.57 1021.76 1021.88 1021.96 1022.01 1022.05 1022.11 1022.20 1022.33 1022.50 1022.68 1022.86 1023.02 1023.13 1023.18 1023.16 1023.07 1022.91 1022.70 1022.45 1022.19 1021.92 1021.65 1021.40 1021.17 1020.96 1020.78 1020.61 1020.44 1020.27 1020.08
1019.64 1019.80 1019.91 1020.02 1020.16 1020.35 1020.58 1020.86 1021.16 1021.47 1021.75 1021.99 1022.18 1022.30 1022.37 1022.40 1022.42 1022.44 1022.48 1022.56 1022.68 1022.83 1023.00 1023.17 1023.32 1023.43 1023.47 1023.45 1023.35 1023.19 1022.96 1022.69 1022.40 1022.08 1021.77 1021.47 1021.20 1020.94 1020.71 1020.50 1020.29 1020.08 1019.84
1020.47 1020.57 1020.65 1020.73 1020.86 1021.03 1021.25 1021.51 1021.79 1022.06 1022.30 1022.49 1022.62 1022.70 1022.73 1022.72 1022.71 1022.71 1022.74 1022.80 1022.90 1023.04 1023.19 1023.34 1023.48 1023.57 1023.61 1023.59 1023.50 1023.33 1023.11 1022.83 1022.51 1022.17 1021.83 1021.48 1021.16 1020.85 1020.56 1020.29 1020.02 1019.75 1019.45
1021.08 1021.15 1021.20 1021.27 1021.38 1021.54 1021.74 1021.98 1022.23 1022.46 1022.66 1022.81 1022.90 1022.94 1022.94 1022.92 1022.88 1022.87 1022.87 1022.92 1023.00 1023.10 1023.23 1023.36 1023.48 1023.56 1023.59 1023.57 1023.48 1023.33 1023.11 1022.84 1022.52 1022.16 1021.79 1021.40 1021.03 1020.66 1020.31 1019.97 1019.64 1019.30 1018.94
1021.45 1021.52 1021.57 1021.64 1021.74 1021.88 1022.07 1022.28 1022.49 1022.69 1022.86 1022.98 1023.04 1023.06 1023.04 1023.00 1022.96 1022.92 1022.91 1022.93 1022.98 1023.06 1023.16 1023.26 1023.35 1023.42 1023.46 1023.44 1023.36 1023.23 1023.02 1022.75 1022.43 1022.07 1021.67 1021.25 1020.83 1020.41 1020.00 1019.59 1019.19 1018.79 1018.38
1021.65 1021.73 1021.80 1021.87 1021.97 1022.11 1022.28 1022.46 1022.65 1022.82 1022.96 1023.05 1023.09 1023.10 1023.07 1023.02 1022.97 1022.92 1022.90 1022.89 1022.92 1022.97 1023.04 1023.11 1023.19 1023.25 1023.28 1023.27 1023.21 1023.09 1022.90 1022.64 1022.32 1021.94 1021.52 1021.07 1020.60 1020.13 1019.66 1019.20 1018.75 1018.31 1017.86
1021.74 1021.86 1021.96 1022.05 1022.16 1022.28 1022.43 1022.59 1022.75 1022.89 1023.00 1023.08 1023.11 1023.11 1023.08 1023.03 1022.97 1022.92 1022.89 1022.87 1022.88 1022.90 1022.95 1023.01 1023.08 1023.13 1023.17 1023.17 1023.12 1023.00 1022.82 1022.57 1022.24 1021.84 1021.39 1020.90 1020.39 1019.88 1019.36 1018.86 1018.38 1017.91 1017.45
1021.83 1021.99 1022.12 1022.22 1022.33 1022.45 1022.58 1022.71 1022.84 1022.95 1023.04 1023.10 1023.12 1023.12 1023.09 1023.05 1023.00 1022.95 1022.92 1022.90 1022.90 1022.93 1022.97 1023.03 1023.09 1023.15 1023.19 1023.19 1023.15 1023.03 1022.84 1022.57 1022.22 1021.80 1021.31 1020.78 1020.23 1019.67 1019.12 1018.60 1018.10 1017.62 1017.18
1021.96 1022.16 1022.31 1022.43 1022.53 1022.64 1022.74 1022.84 1022.93 1023.01 1023.07 1023.12 1023.13 1023.13 1023.11 1023.08 1023.05 1023.02 1023.01 1023.00 1023.02 1023.06 1023.11 1023.19 1023.26 1023.32 1023.37 1023.37 1023.31 1023.18 1022.97 1022.67 1022.27 1021.80 1021.27 1020.70 1020.10 1019.51 1018.94 1018.40 1017.90 1017.44 1017.02
1022.14 1022.36 1022.52 1022.64 1022.73 1022.81 1022.88 1022.95 1023.00 1023.05 1023.09 1023.12 1023.13 1023.13 1023.13 1023.12 1023.11 1023.11 1023.12 1023.16 1023.21 1023.28 1023.36 1023.46 1023.55 1023.63 1023.67 1023.67 1023.59 1023.42 1023.16 1022.81 1022.36 1021.83 1021.24 1020.62 1019.98 1019.36 1018.77 1018.24 1017.76 1017.32 1016.94
1022.34 1022.56 1022.71 1022.82 1022.89 1022.94 1022.98 1023.00 1023.02 1023.04 1023.05 1023.06 1023.07 1023.08 1023.08 1023.10 1023.12 1023.16 1023.22 1023.30 1023.40 1023.52 1023.66 1023.79 1023.91 1024.00 1024.04 1024.01 1023.89 1023.68 1023.36 1022.93 1022.42 1021.82 1021.17 1020.50 1019.83 1019.19 1018.60 1018.07 1017.61 1017.22 1016.88
1022.50 1022.71 1022.84 1022.92 1022.97 1022.99 1022.98 1022.97 1022.96 1022.94 1022.93 1022.92 1022.92 1022.93 1022.95 1022.99 1023.04 1023.13 1023.24 1023.38 1023.54 1023.72 1023.90 1024.08 1024.22 1024.32 1024.36 1024.30 1024.14 1023.87 1023.48 1022.98 1022.39 1021.73 1021.03 1020.32 1019.62 1018.97 1018.39 1017.88 1017.46 1017.09 1016.79
Thickness
5819 5823 5822 5822 5820 5816 5811 5805 5799 5794 5788 5780 5772 5765 5760 5756 5752 5747 5741 5736 5732 5726 5721 5715 5710 5705 5699 5693 5688 5681 5675 5670 5667 5664 5663 5664 5665 5665 5663 5660 5659 5659 5657
5807 5808 5809 5809 5810 5808 5805 5800 5795 5790 5784 5777 5770 5763 5756 5749 5744 5738 5733 5728 5724 5718 5713 5709 5703 5698 5692 5686 5681 5676 5670 5665 5661 5658 5654 5653 5656 5659 5659 5655 5652 5650 5649
5790 5790 5792 5794 5797 5798 5798 5796 5791 5785 5778 5772 5763 5755 5747 5740 5733 5728 5723 5718 5714 5710 5705 5700 5696 5690 5685 5680 5675 5670 5664 5658 5654 5652 5647 5643 5643 5644 5647 5646 5645 5643 5639
5777 5776 5777 5778 5782 5786 5789 5788 5784 5778 5771 5764 5755 5746 5737 5729 5724 5719 5713 5708 5704 5699 5695 5690 5686 5681 5676 5671 5667 5662 5658 5652 5646 5643 5639 5636 5633 5628 5628 5631 5632 5631 5628
5760 5759 5760 5763 5767 5771 5772 5772 5768 5763 5759 5753 5746 5737 5729 5723 5716 5709 5702 5697 5692 5687 5683 5678 5674 5669 5665 5660 5655 5651 5646 5642 5637 5632 5628 5624 5620 5616 5612 5613 5614 5614 5613
5743 5743 5744 5746 5748 5751 5753 5752 5749 5744 5742 5738 5731 5725 5718 5711 5704 5697 5691 5685 5679 5674 5669 5665 5661 5656 5651 5647 5642 5638 5633 5629 5624 5620 5615 5610 5606 5602 5599 5597 5597 5597 5598
5725 5724 5725 5726 5728 5730 5731 5732 5730 5726 5724 5720 5715 5710 5704 5698 5692 5685 5679 5673 5666 5660 5655 5651 5647 5642 5638 5633 5629 5625 5620 5615 5610 5605 5601 5597 5592 5589 5584 5581 5581 5581 5581
5707 5706 5706 5708 5709 5710 5711 5712 5710 5707 5705 5702 5698 5694 5689 5683 5677 5671 5665 5659 5652 5646 5641 5637 5633 5628 5624 5620 5615 5611 5606 5601 5596 5592 5587 5583 5578 5575 5571 5567 5565 5564 5564
5691 5690 5690 5691 5692 5693 5693 5694 5693 5690 5687 5684 5681 5676 5672 5667 5661 5655 5650 5643 5637 5632 5627 5623 5618 5614 5609 5605 5601 5596 5591 5586 5582 5577 5573 5568 5564 5560 5557 5553 5549 5546 5545
5677 5676 5676 5676 5677 5677 5677 5677 5676 5673 5671 5668 5665 5660 5655 5650 5645 5640 5633 5628 5622 5617 5612 5607 5603 5598 5593 5589 5585 5580 5576 5571 5566 5562 5557 5553 5548 5544 5540 5536 5533 5530 5527
5665 5664 5663 5663 5664 5664 5663 5661 5660 5657 5654 5650 5647 5643 5638 5633 5628 5622 5616 5611 5606 5601 5596 5591 5586 5582 5577 5572 5567 5563 5559 5555 5550 5545 5541 5536 5532 5527 5522 5518 5515 5512 5509
5653 5652 5651 5651 5650 5649 5648 5646 5644 5641 5637 5634 5630 5625 5620 5616 5611 5605 5600 5594 5589 5585 5579 5574 5570 5565 5560 5555 5550 5545 5541 5537 5532 5528 5523 5519 5515 5510 5506 5502 5498 5495 5491
5641 5640 5639 5637 5636 5634 5632 5630 5628 5624 5621 5617 5612 5607 5602 5597 5592 5587 5582 5577 5572 5567 5562 5557 5552 5547 5542 5537 5532 5526 5522 5519 5514 5510 5507 5503 5499 5495 5491 5487 5484 5481 5478
5628 5627 5625 5622 5620 5618 5615 5612 5609 5606 5602 5598 5593 5587 5582 5578 5573 5569 5564 5559 5554 5549 5544 5539 5534 5529 5523 5517 5511 5507 5504 5501 5498 5495 5492 5489 5486 5483 5479 5475 5471 5468 5464
5615 5613 5610 5607 5604 5600 5597 5594 5590 5587 5583 5579 5573 5568 5564 5559 5555 5550 5545 5541 5536 5532 5526 5521 5516 5511 5504 5495 5490 5486 5486 5483 5482 5480 5479 5477 5475 5472 5467 5463 5459 5454 5452
5601 5598 5595 5591 5587 5583 5580 5576 5572 5568 5564 5560 5555 5551 5547 5543 5538 5533 5528 5523 5518 5513 5508 5503 5498 5492 5485 5476 5472 5469 5468 5467 5467 5467 5466 5465 5464 5462 5457 5452 5448 5444 5442
5587 5583 5578 5574 5570 5566 5563 5560 5555 5552 5548 5544 5540 5535 5531 5526 5521 5517 5511 5506 5500 5495 5490 5486 5481 5475 5465 5460 5456 5454 5453 5454 5455 5454 5453 5453 5453 5449 5445 5442 5440 5439 5438
5572 5568 5564 5559 5555 5552 5548 5544 5541 5537 5534 5529 5525 5520 5516 5510 5505 5500 5494 5488 5484 5479 5475 5470 5465 5459 5451 5445 5442 5440 5441 5443 5443 5443 5442 5441 5439 5437 5432 5431 5433 5434 5434
5559 5555 5551 5547 5543 5539 5535 5531 5528 5524 5520 5515 5510 5505 5500 5494 5489 5483 5478 5473 5468 5464 5459 5455 5450 5445 5438 5432 5428 5426 5428 5431 5431 5431 5431 5430 5429 5425 5423 5424 5427 5429 5431
5548 5544 5540 5536 5531 5527 5524 5520 5516 5511 5507 5501 5495 5490 5484 5479 5474 5468 5464 5459 5454 5450 5445 5441 5436 5432 5426 5419 5416 5413 5416 5418 5418 5420 5421 5421 5419 5418 5418 5419 5422 5425 5428
5537 5533 5529 5525 5521 5517 5513 5509 5504 5499 5494 5488 5482 5476 5471 5466 5461 5456 5450 5445 5441 5436 5432 5429 5424 5420 5415 5410 5405 5403 5404 5405 5406 5410 5413 5414 5414 5415 5417 5418 5421 5424 5426
5528 5524 5520 5515 5511 5507 5503 5498 5493 5488 5483 5477 5471 5465 5460 5455 5450 5443 5438 5433 5428 5425 5422 5418 5414 5410 5405 5401 5398 5396 5396 5396 5399 5404 5407 5410 5412 5415 5419 5422 5425 5426 5427
5519 5515 5512 5507 5503 5499 5494 5488 5483 5479 5473 5467 5461 5455 5449 5443 5438 5432 5427 5423 5419 5415 5412 5409 5405 5402 5398 5394 5392 5391 5392 5394 5397 5401 5404 5408 5413 5417 5422 5426 5427 5428 5430
5512 5508 5505 5500 5495 5491 5486 5480 5476 5470 5464 5458 5452 5447 5441 5435 5429 5424 5420 5415 5411 5407 5405 5401 5398 5395 5392 5389 5386 5387 5390 5393 5397 5399 5404 5410 5416 5420 5424 5427 5430 5431 5432
5506 5502 5498 5493 5488 5483 5478 5474 5468 5462 5456 5450 5445 5440 5435 5431 5424 5419 5412 5409 5402 5397 5394 5392 5390 5388 5387 5383 5381 5382 5387 5389 5393 5396 5404 5412 5417 5422 5426 5429 5431 5433 5434
5500 5496 5491 5487 5482 5477 5472 5468 5463 5457 5451 5445 5440 5436 5433 5428 5424 5418 5410 5402 5398 5393 5389 5385 5383 5384 5382 5382 5384 5386 5389 5393 5396 5400 5407 5413 5417 5421 5425 5428 5432 5434 5435